カタログに戻る

FENGYUN 1C DEB

運用中PO
NORAD 31173·DEBRIS·🇨🇳 China

打ち上げ May 10, 1999 から Taiyuan Satellite Launch Center

Loading…

次のパス (今後24時間)

TLE

経年Source: Space-Track

元期: Sep 9, 2026, 10:29 UTC

1 31173U 99025BJB 26252.43688324  .00001563  00000-0  76908-3 0  9993
2 31173  98.2100 323.3964 0063496  12.5262 347.7475 14.17851999678331

AllMySatでFENGYUN 1C DEBをリアルタイム追跡

Download on the App Store